This is the latest recevied weather packets stored in our database for station/object K0NV. If no packets are shown the sender has not sent any weather packets the latest 10 day(s).
| Time | Temp. | Humidity | Pressure | Rain* | Wind** | Luminosity | Snow |
|---|---|---|---|---|---|---|---|
| 1777207812 | 16.11° C | 95% | 1012.2 hPa | 0 mm | - | 147 W/m² | - |
| 1777207512 | 16.11° C | 96% | 1012.1 hPa | 0 mm | - | 111 W/m² | - |
| 1777207207 | 15.56° C | 96% | 1012.3 hPa | 0 mm | - | 89 W/m² | - |
| 1777206903 | 15.56° C | 97% | 1012.2 hPa | 0 mm | - | 75 W/m² | - |
| 1777206598 | 15.56° C | 97% | 1012.1 hPa | 0 mm | - | 51 W/m² | - |
| 1777206293 | 15° C | 98% | 1012.2 hPa | 0 mm | - | 46 W/m² | - |
| 1777205989 | 15° C | 98% | 1012.4 hPa | 0 mm | - | 43 W/m² | - |
| 1777205685 | 15° C | 98% | 1012.1 hPa | 0 mm | - | 40 W/m² | - |
| 1777205383 | 15° C | 99% | 1011.9 hPa | 0 mm | - | 36 W/m² | - |
| 1777205078 | 14.44° C | 99% | 1012 hPa | 0 mm | - | 33 W/m² | - |
| 1777204774 | 14.44° C | 99% | 1011.9 hPa | 0 mm | - | 29 W/m² | - |
| 1777204469 | 14.44° C | 99% | 1011.9 hPa | 0 mm | - | 22 W/m² | - |
| 1777204166 | 14.44° C | 99% | 1012 hPa | 0 mm | - | 16 W/m² | - |
| 1777203861 | 13.89° C | 99% | 1011.9 hPa | 0 mm | - | 12 W/m² | - |
| 1777203561 | 13.89° C | 99% | 1012 hPa | 0 mm | - | 8 W/m² | - |
| 1777203257 | 13.89° C | 99% | 1011.7 hPa | 0 mm | - | 5 W/m² | - |
| 1777202955 | 13.89° C | 99% | 1011.6 hPa | 0 mm | - | 2 W/m² | - |
| 1777202654 | 13.89° C | 99% | 1011.7 hPa | 0 mm | - | 0 W/m² | - |
| 1777202348 | 13.89° C | 99% | 1011.4 hPa | 0 mm | - | 0 W/m² | - |
| 1777202044 | 13.89° C | 99% | 1011.4 hPa | 0 mm | - | 0 W/m² | - |
| 1777201741 | 13.89° C | 99% | 1011.5 hPa | 0 mm | - | 0 W/m² | - |
* Rain latest hour (hover to see other rain measurements)
** Current wind speed in m/s (hover to see current wind gust speed)